DW9657 Weather Reports


Display with metric or nautical units.
time (UTC)temp
F
wind
direction
speed
MPH
gust
MPH
rain 1hr
in
rain 24hr
in
rain mn
in
humidity
%
barometer
mb
20260506102329 45 226 2.0 3.0 0.00 0.21 0.01 91 1009.0
20260506101826 45 226 2.0 3.0 0.00 0.21 0.01 90 1008.8
20260506101329 45 226 1.0 4.0 0.00 0.21 0.01 91 1008.6
20260506100826 45 223 2.0 4.0 0.00 0.21 0.01 91 1008.5
20260506100351 45 221 2.0 3.0 0.00 0.21 0.01 91 1008.6
20260506095834 45 221 1.0 3.0 0.00 0.21 0.01 91 1008.5
20260506095332 45 220 1.0 2.0 0.00 0.21 0.01 91 1008.6
20260506094836 45 220 0.0 2.0 0.00 0.21 0.01 91 1008.6
20260506094332 45 219 1.0 2.0 0.00 0.21 0.01 91 1008.6
20260506093828 45 218 1.0 2.0 0.00 0.21 0.01 91 1008.8
20260506093331 45 218 0.0 2.0 0.00 0.21 0.01 91 1008.8
20260506092830 45 218 0.0 2.0 0.00 0.21 0.01 91 1008.9
20260506092348 45 219 1.0 2.0 0.00 0.21 0.01 91 1008.9
20260506091850 45 218 1.0 3.0 0.00 0.21 0.01 91 1008.8
20260506091332 45 218 1.0 3.0 0.00 0.21 0.01 91 1008.8
20260506090829 45 218 1.0 2.0 0.00 0.21 0.01 91 1008.8
20260506090332 46 218 0.0 2.0 0.00 0.21 0.01 91 1008.6
20260506085849 45 218 1.0 2.0 0.00 0.21 0.01 91 1008.8
20260506085332 45 218 0.0 2.0 0.00 0.21 0.01 91 1008.7
20260506084829 45 218 0.0 4.0 0.00 0.21 0.01 90 1008.7
20260506084332 45 218 1.0 4.0 0.00 0.21 0.01 90 1008.9
20260506083829 45 218 1.0 3.0 0.00 0.21 0.01 90 1009.1
20260506083332 45 218 1.0 3.0 0.00 0.21 0.01 90 1008.9
20260506082828 45 218 1.0 3.0 0.00 0.21 0.01 89 1008.7
20260506082331 45 218 1.0 2.0 0.00 0.21 0.01 89 1008.4
20260506081827 45 218 0.0 2.0 0.00 0.21 0.01 89 1008.2
20260506081330 45 218 1.0 2.0 0.00 0.21 0.01 89 1008.3
20260506080827 45 218 1.0 2.0 0.00 0.21 0.01 89 1008.5
20260506080353 45 218 1.0 3.0 0.00 0.21 0.01 89 1008.4
20260506073329 45 214 1.0 2.0 0.00 0.21 0.01 92 1008.7
20260506072852 45 214 1.0 2.0 0.00 0.21 0.01 92 1008.6
20260506072335 45 214 1.0 2.0 0.00 0.21 0.01 92 1008.6
20260506071833 45 214 0.0 1.0 0.00 0.21 0.01 92 1008.4
20260506071336 45 214 0.0 1.0 0.00 0.21 0.01 92 1008.5
20260506070832 45 214 0.0 1.0 0.00 0.21 0.01 92 1008.6
20260506070336 45 214 0.0 0.0 0.00 0.21 0.01 92 1008.6
20260506062335 44 214 0.0 1.0 0.00 0.21 0.01 92 1009.1
20260506061828 44 214 0.0 0.0 0.00 0.21 0.01 92 1008.9
20260506061332 44 214 0.0 0.0 0.00 0.21 0.01 92 1008.9
20260506060828 44 214 0.0 0.0 0.00 0.21 0.01 92 1009.1
20260506060332 44 214 0.0 0.0 0.00 0.21 0.01 92 1009.0
20260506051351 45 216 0.0 0.0 0.01 0.22 0.01 92 1009.2
20260506050826 45 216 0.0 1.0 0.01 0.22 0.01 92 1009.3
20260506050330 45 216 0.0 1.0 0.01 0.22 0.01 91 1009.2
20260506044843 45 224 0.0 0.0 0.01 0.23 0.01 92 1009.4
20260506044337 45 224 0.0 0.0 0.02 0.23 0.01 92 1009.4
20260506043839 45 224 0.0 0.0 0.02 0.23 0.01 92 1009.4
20260506043332 45 224 0.0 1.0 0.02 0.23 0.01 92 1009.4
20260506042836 45 224 0.0 1.0 0.01 0.22 0.00 92 1009.3
20260506042334 45 224 0.0 1.0 0.01 0.22 0.00 92 1009.5
20260506041837 46 224 0.0 0.0 0.01 0.22 0.00 93 1009.3
20260506041334 46 225 0.0 0.0 0.02 0.22 0.00 92 1009.2
20260506040839 46 224 0.0 0.0 0.02 0.22 0.00 92 1009.1
20260506040335 46 224 0.0 1.0 0.02 0.22 0.00 92 1009.2
20260506035858 46 224 0.0 1.0 0.02 0.22 0.22 92 1009.2
20260506035422 46 224 0.0 0.0 0.02 0.22 0.22 92 1008.9
20260506034836 46 224 0.0 0.0 0.02 0.22 0.22 92 1009.0
20260506034333 46 224 0.0 0.0 0.02 0.21 0.21 92 1008.9
20260506033838 46 224 0.0 0.0 0.02 0.21 0.21 92 1008.9
20260506033335 46 224 0.0 0.0 0.02 0.21 0.21 92 1009.0
20260506032838 46 225 0.0 0.0 0.02 0.21 0.21 92 1008.9
20260506032332 46 224 0.0 0.0 0.03 0.21 0.21 92 1009.0
20260506031817 47 225 0.0 0.0 0.03 0.21 0.21 92 1009.1
20260506031333 47 224 0.0 0.0 0.02 0.20 0.20 93 1009.2
20260506030838 47 225 0.0 0.0 0.02 0.20 0.20 93 1009.2
20260506030337 47 224 0.0 1.0 0.02 0.20 0.20 93 1009.3
20260506025841 47 224 0.0 1.0 0.02 0.20 0.20 93 1009.5
20260506025342 48 224 0.0 1.0 0.02 0.20 0.20 93 1009.4
20260506024856 48 225 0.0 1.0 0.02 0.19 0.19 94 1009.4
20260506024338 48 224 0.0 2.0 0.02 0.19 0.19 94 1009.3
20260506023902 48 224 1.0 2.0 0.02 0.19 0.19 94 1009.2
20260506023337 49 224 0.0 3.0 0.02 0.19 0.19 94 1009.3
20260506022834 49 224 1.0 3.0 0.02 0.19 0.19 94 1009.3
20260506022336 49 225 1.0 4.0 0.01 0.18 0.18 94 1009.4
20260506021832 49 225 2.0 4.0 0.01 0.18 0.18 94 1009.4
20260506021335 49 218 2.0 3.0 0.01 0.18 0.18 94 1009.4
20260506020831 49 218 2.0 3.0 0.01 0.18 0.18 94 1009.2
20260506020335 49 218 1.0 2.0 0.01 0.18 0.18 94 1009.2
20260506015832 49 218 1.0 2.0 0.01 0.18 0.18 94 1009.1
20260506015334 49 218 0.0 2.0 0.00 0.17 0.17 94 1008.9
20260506014850 49 218 1.0 2.0 0.00 0.17 0.17 94 1008.8
20260506014352 49 218 1.0 2.0 0.00 0.17 0.17 94 1008.7
20260506013836 49 218 1.0 2.0 0.00 0.17 0.17 94 1008.6
20260506013333 49 218 1.0 2.0 0.01 0.17 0.17 94 1008.6
20260506012837 49 218 1.0 2.0 0.01 0.17 0.17 94 1008.6
20260506012334 49 218 1.0 2.0 0.01 0.17 0.17 94 1008.5
20260506011858 49 218 1.0 2.0 0.01 0.17 0.17 94 1008.4
20260506011333 49 218 1.0 2.0 0.01 0.17 0.17 94 1008.5
20260506010838 49 218 1.0 2.0 0.01 0.17 0.17 94 1008.3
20260506010334 49 218 1.0 2.0 0.01 0.17 0.17 94 1008.4
20260506005852 49 218 1.0 2.0 0.01 0.21 0.17 94 1008.3
20260506005327 49 218 1.0 3.0 0.01 0.21 0.17 94 1008.4
20260506004851 49 218 2.0 3.0 0.02 0.21 0.17 94 1008.4
20260506004355 49 217 1.0 3.0 0.02 0.21 0.17 94 1008.4
20260506003838 49 216 1.0 4.0 0.02 0.21 0.17 94 1008.4
20260506003333 49 215 2.0 4.0 0.01 0.20 0.16 94 1008.4
20260506002828 49 221 2.0 4.0 0.01 0.20 0.16 94 1008.5
20260506002331 49 210 2.0 4.0 0.01 0.20 0.16 94 1008.5
20260506001829 49 216 2.0 4.0 0.01 0.20 0.16 94 1008.5
20260506001334 49 216 2.0 3.0 0.01 0.20 0.16 94 1008.4
20260506000856 49 216 2.0 3.0 0.01 0.20 0.16 94 1008.3
20260506000330 49 218 1.0 3.0 0.01 0.20 0.16 93 1008.1
20260505235830 49 218 1.0 2.0 0.01 0.25 0.16 93 1008.0
20260505235325 49 218 0.0 2.0 0.01 0.25 0.16 93 1008.0
20260505234826 49 218 0.0 2.0 0.00 0.24 0.15 93 1007.9
20260505234323 49 218 0.0 2.0 0.01 0.24 0.15 93 1007.9
20260505233827 50 217 1.0 2.0 0.01 0.24 0.15 93 1007.8
20260505233323 50 218 1.0 2.0 0.01 0.24 0.15 93 1007.9
20260505232818 50 217 0.0 1.0 0.02 0.24 0.15 93 1007.8
20260505232321 50 218 0.0 1.0 0.02 0.24 0.15 93 1007.8
20260505231844 50 218 0.0 0.0 0.02 0.24 0.15 93 1007.9
20260505231327 50 218 0.0 0.0 0.03 0.24 0.15 93 1007.8
20260505230824 50 217 0.0 0.0 0.03 0.24 0.15 93 1007.7
20260505230334 50 217 0.0 0.0 0.03 0.24 0.15 93 1007.9
20260505225832 50 217 0.0 2.0 0.03 0.24 0.15 93 1007.9
20260505225335 50 218 0.0 2.0 0.04 0.24 0.15 93 1008.0
20260505224831 50 217 0.0 1.0 0.04 0.24 0.15 93 1007.9
20260505224335 50 217 0.0 1.0 0.03 0.23 0.14 93 1007.9
20260505223827 50 218 0.0 2.0 0.04 0.23 0.14 93 1007.9
20260505223331 50 217 1.0 2.0 0.04 0.23 0.14 92 1007.8
20260505222835 50 218 0.0 2.0 0.04 0.22 0.13 93 1007.8
20260505222340 50 218 1.0 2.0 0.04 0.22 0.13 92 1007.9
20260505221835 50 218 1.0 2.0 0.05 0.22 0.13 92 1007.8
20260505221331 50 217 0.0 3.0 0.04 0.21 0.12 92 1007.9
20260505220833 50 217 0.0 3.0 0.05 0.21 0.12 92 1007.8
20260505220328 50 218 1.0 4.0 0.06 0.21 0.12 92 1008.1
20260505215831 50 218 2.0 4.0 0.06 0.22 0.12 91 1008.2
20260505215329 50 220 2.0 4.0 0.06 0.21 0.11 91 1008.1
20260505214833 50 217 1.0 3.0 0.06 0.21 0.11 91 1008.0
20260505214328 50 217 1.0 3.0 0.06 0.21 0.11 91 1007.9
20260505213825 50 218 2.0 4.0 0.05 0.20 0.10 90 1008.0
20260505213327 50 220 2.0 4.0 0.05 0.20 0.10 90 1008.0
20260505212823 50 220 2.0 4.0 0.04 0.19 0.09 90 1008.0
20260505212325 50 222 2.0 4.0 0.03 0.18 0.08 89 1007.9
20260505211822 50 220 1.0 4.0 0.03 0.18 0.08 89 1007.9
20260505211327 51 220 1.0 5.0 0.02 0.17 0.07 88 1007.9
20260505210825 51 221 2.0 4.0 0.02 0.17 0.07 88 1008.0
20260505210330 51 220 2.0 6.0 0.01 0.16 0.06 87 1008.0
20260505205827 51 221 3.0 6.0 0.01 0.16 0.06 87 1007.9
20260505205333 51 221 2.0 8.0 0.00 0.15 0.05 87 1007.9
20260505204851 51 224 3.0 8.0 0.00 0.15 0.05 87 1008.0
20260505204335 51 220 3.0 9.0 0.00 0.15 0.05 87 1007.9
20260505203841 51 221 3.0 9.0 0.01 0.15 0.05 87 1008.0
20260505203319 51 220 3.0 8.0 0.01 0.15 0.05 88 1008.1
20260505202822 51 221 3.0 7.0 0.01 0.15 0.05 88 1008.2
20260505202349 51 220 3.0 8.0 0.01 0.15 0.05 88 1008.3
20260505201824 51 218 4.0 8.0 0.02 0.15 0.05 88 1008.2
20260505201329 51 220 4.0 9.0 0.02 0.15 0.05 89 1008.2
20260505200824 51 223 3.0 9.0 0.02 0.15 0.05 89 1008.3
20260505200450 51 220 2.0 8.0 0.02 0.15 0.05 89 1008.4
20260505195841 51 224 2.0 8.0 0.02 0.15 0.05 89 1008.4
20260505195318 51 223 3.0 6.0 0.02 0.15 0.05 88 1008.6
20260505194843 52 224 3.0 6.0 0.03 0.15 0.05 88 1008.5
20260505194321 52 219 3.0 5.0 0.03 0.15 0.05 88 1008.7
20260505193845 52 230 2.0 5.0 0.02 0.14 0.04 88 1008.5
20260505193341 52 224 2.0 8.0 0.02 0.14 0.04 87 1008.1
20260505192846 52 230 3.0 8.0 0.02 0.14 0.04 87 1008.3
20260505192350 52 228 2.0 5.0 0.02 0.14 0.04 87 1008.1
20260505191834 53 225 3.0 5.0 0.01 0.13 0.03 86 1008.3
20260505191330 53 231 3.0 5.0 0.01 0.13 0.03 85 1008.5
20260505190826 53 229 4.0 6.0 0.01 0.13 0.03 84 1008.5
20260505190330 53 229 4.0 6.0 0.01 0.13 0.03 84 1008.5
20260505185824 53 229 3.0 8.0 0.01 0.13 0.03 82 1008.4
20260505185328 54 225 4.0 8.0 0.01 0.13 0.03 81 1008.3
20260505184826 54 228 3.0 8.0 0.00 0.12 0.02 80 1008.4
20260505184329 55 230 3.0 8.0 0.00 0.12 0.02 79 1008.5
20260505183827 55 230 4.0 8.0 0.00 0.12 0.02 78 1008.3
20260505183348 56 230 3.0 6.0 0.00 0.12 0.02 77 1008.3
20260505182830 56 232 2.0 6.0 0.00 0.12 0.02 75 1008.3
20260505182326 56 230 3.0 8.0 0.00 0.12 0.02 74 1008.2
20260505181823 57 227 2.0 5.0 0.00 0.12 0.02 74 1008.0
20260505181327 57 230 2.0 5.0 0.00 0.12 0.02 72 1007.9
20260505180825 57 231 2.0 5.0 0.00 0.12 0.02 71 1007.6
20260505180330 57 233 2.0 5.0 0.00 0.12 0.02 71 1007.6
20260505175828 57 233 3.0 10.0 0.00 0.12 0.02 70 1007.5
20260505175317 57 229 3.0 10.0 0.00 0.12 0.02 71 1007.4
20260505174831 57 224 5.0 11.0 0.00 0.12 0.02 68 1007.5
20260505174334 57 235 6.0 9.0 0.00 0.12 0.02 68 1007.4
20260505173839 57 228 5.0 8.0 0.00 0.12 0.02 68 1007.3
20260505173337 57 227 3.0 5.0 0.00 0.12 0.02 71 1007.4
20260505172841 57 222 2.0 5.0 0.00 0.12 0.02 71 1007.3
20260505172337 57 222 3.0 5.0 0.00 0.12 0.02 70 1007.1
20260505171841 57 221 2.0 6.0 0.00 0.12 0.02 70 1007.1
20260505171335 57 227 3.0 6.0 0.00 0.12 0.02 70 1007.1
20260505170840 57 222 4.0 6.0 0.00 0.12 0.02 69 1007.3
20260505170344 57 222 3.0 7.0 0.00 0.12 0.02 69 1007.3
20260505165818 57 221 3.0 11.0 0.00 0.12 0.02 67 1007.3
20260505165323 57 222 4.0 11.0 0.00 0.12 0.02 67 1007.3
20260505164820 57 222 4.0 10.0 0.00 0.12 0.02 67 1007.0
20260505164325 57 228 6.0 10.0 0.00 0.12 0.02 67 1007.4
20260505163822 58 224 5.0 8.0 0.00 0.12 0.02 68 1007.4
20260505163319 58 224 5.0 8.0 0.00 0.12 0.02 69 1007.5
20260505162822 58 224 5.0 10.0 0.00 0.12 0.02 68 1007.5
20260505162319 58 225 5.0 10.0 0.00 0.12 0.02 66 1007.6
20260505161821 58 225 7.0 10.0 0.00 0.12 0.02 66 1007.5
20260505161319 58 221 5.0 11.0 0.00 0.12 0.02 67 1007.3
20260505160822 58 222 5.0 11.0 0.00 0.12 0.02 65 1007.3
20260505160320 58 225 5.0 11.0 0.00 0.12 0.02 66 1007.1
20260505153324 59 229 5.0 15.0 0.00 0.12 0.02 71 1006.6
20260505152828 59 233 6.0 15.0 0.00 0.12 0.02 71 1006.5
20260505152328 59 216 6.0 12.0 0.00 0.12 0.02 72 1006.6
20260505151823 59 225 4.0 9.0 0.00 0.12 0.02 76 1006.5
20260505151320 60 220 5.0 11.0 0.00 0.12 0.02 77 1006.4
20260505150824 60 221 5.0 11.0 0.00 0.12 0.02 78 1006.2
20260505150321 60 220 3.0 11.0 0.00 0.12 0.02 79 1006.2
20260505140329 58 222 4.0 8.0 0.00 0.12 0.02 88 1004.8
20260505124830 57 220 6.0 11.0 0.00 0.12 0.02 91 1004.3
20260505124332 57 210 7.0 11.0 0.00 0.12 0.02 91 1004.2
20260505123828 57 220 6.0 11.0 0.00 0.12 0.02 91 1004.3
20260505123332 57 217 7.0 10.0 0.00 0.12 0.02 91 1004.2
20260505122829 57 216 6.0 11.0 0.00 0.12 0.02 91 1004.3
20260505122332 57 210 6.0 11.0 0.00 0.12 0.02 91 1004.1
20260505121830 57 219 8.0 11.0 0.00 0.12 0.02 91 1004.2
20260505121334 56 215 7.0 11.0 0.00 0.12 0.02 91 1004.2
20260505120832 56 214 7.0 11.0 0.00 0.12 0.02 91 1004.1
20260505120338 56 224 8.0 12.0 0.00 0.12 0.02 91 1004.1
20260505115833 56 216 7.0 12.0 0.00 0.12 0.02 91 1004.2
20260505115337 56 221 8.0 14.0 0.00 0.12 0.02 91 1004.3
20260505114834 56 222 8.0 14.0 0.00 0.12 0.02 91 1004.3
20260505114338 56 224 7.0 11.0 0.00 0.12 0.02 91 1004.0
20260505113834 56 220 6.0 9.0 0.00 0.12 0.02 91 1003.8
20260505113337 56 220 5.0 9.0 0.00 0.12 0.02 91 1003.6
20260505112834 56 219 5.0 11.0 0.00 0.12 0.02 91 1003.3
20260505112338 56 210 6.0 10.0 0.00 0.12 0.02 91 1003.3
20260505111835 56 205 6.0 13.0 0.00 0.12 0.02 91 1003.3
20260505111332 56 221 7.0 13.0 0.00 0.12 0.02 91 1003.2
20260505110836 56 219 6.0 13.0 0.00 0.12 0.02 91 1003.3
20260505110357 56 218 7.0 11.0 0.00 0.12 0.02 91 1003.1